Change the Weather History Date:

Friday, July 26, 2013

  Actual Average (KHVN) Record (KHVN)
Temperature  
Mean Temperature 68 °F -  
Max Temperature 75 °F 78 °F 100 °F (1987)
Min Temperature 61 °F 63 °F 55 °F (2002)
Cooling Degree Days 3    
Growing Degree Days 18 (Base 50)    
Moisture  
Dew Point 61 °F    
Average Humidity 84    
Maximum Humidity 94    
Minimum Humidity 68    
Precipitation  
Precipitation 0.27 in - - ()
Sea Level Pressure  
Sea Level Pressure 30.01 in    
Wind  
Wind Speed 5 mph (NNW)    
Max Wind Speed 12 mph    
Max Gust Speed -    
Visibility 9 miles    
Events Rain    
Averages and records for this station are not official NWS values.
T = Trace of Precipitation, MM = Missing Value Source: NWS Daily Summary

Daily Weather History Graph

Daily Weather History Graph

Search for Another Location

Airport or City:

Trip Planner

Search our weather history database for the weather conditions in past years. The results will help you decide how hot, cold, wet, or windy it might be!

Date:

Astronomy

Jul. 26, 2013 Rise Set
Actual Time 5:40 AM EDT 8:14 PM EDT
Civil Twilight 5:08 AM EDT 8:46 PM EDT
Nautical Twilight 4:28 AM EDT 9:25 PM EDT
Astronomical Twilight 3:43 AM EDT 10:10 PM EDT
Moon 10:22 PM EDT (7/26) 10:17 AM EDT (7/26)
Length of Visible Light 15h 37m
Length of Day
14h 34m
Waning Gibbous, 80% of the Moon is Illuminated
Jul 26
Waning Gibbous
Jul 29
Last Quarter
Aug 6
New
Aug 14
First Quarter
Aug 20
Full

Hourly Weather History & Observations

Time (EDT) Temp. Dew Point Humidity Pressure Visibility Wind Dir Wind Speed Gust Speed Precip Events Conditions
12:53 AM 61.0 °F 57.9 °F 90% 30.05 in 10.0 mi Variable 3.5 mph - 0.00 in Rain Light Rain
1:53 AM 62.1 °F 57.9 °F 86% 30.03 in 10.0 mi North 6.9 mph - 0.00 in Rain Light Rain
2:53 AM 62.1 °F 59.0 °F 90% 30.01 in 8.0 mi North 4.6 mph - 0.03 in Rain Light Rain
3:53 AM 62.1 °F 59.0 °F 90% 30.00 in 8.0 mi NNW 5.8 mph - 0.07 in Rain Rain
4:53 AM 62.1 °F 59.0 °F 90% 30.00 in 8.0 mi North 6.9 mph - 0.06 in Rain Rain
5:07 AM 62.6 °F 59.0 °F 88% 30.00 in 8.0 mi North 8.1 mph - 0.02 in Rain Light Rain
5:53 AM 62.1 °F 59.0 °F 90% 30.00 in 9.0 mi NNW 6.9 mph - 0.03 in Rain Light Rain
6:01 AM 62.6 °F 59.0 °F 88% 30.00 in 9.0 mi NNW 6.9 mph - 0.00 in Rain Light Rain
6:53 AM 63.0 °F 59.0 °F 87% 30.00 in 9.0 mi NNW 5.8 mph - 0.03 in Rain Light Rain
7:53 AM 63.0 °F 59.0 °F 87% 30.02 in 10.0 mi NNW 5.8 mph - 0.00 in Rain Light Rain
8:13 AM 62.6 °F 59.0 °F 88% 30.02 in 10.0 mi North 8.1 mph - 0.00 in Rain Light Rain
8:31 AM 62.6 °F 59.0 °F 88% 30.01 in 7.0 mi North 11.5 mph - 0.02 in Rain Light Rain
8:53 AM 63.0 °F 59.0 °F 87% 30.02 in 8.0 mi NW 6.9 mph - 0.02 in Rain Light Rain
9:10 AM 62.6 °F 60.8 °F 94% 30.02 in 10.0 mi NNW 5.8 mph - 0.00 in Rain Light Rain
9:53 AM 63.0 °F 60.1 °F 90% 30.02 in 8.0 mi North 5.8 mph - 0.02 in Rain Light Rain
10:53 AM 64.0 °F 61.0 °F 90% 30.02 in 10.0 mi NW 5.8 mph - 0.01 in Rain Light Rain
11:53 AM 66.9 °F 61.0 °F 81% 30.01 in 10.0 mi NNW 8.1 mph - 0.00 in   Overcast
12:53 PM 71.1 °F 62.1 °F 73% 30.01 in 10.0 mi NNW 6.9 mph - N/A   Mostly Cloudy
1:53 PM 72.0 °F 61.0 °F 68% 30.01 in 10.0 mi NNW 8.1 mph - N/A   Overcast
2:53 PM 73.0 °F 62.1 °F 68% 30.01 in 10.0 mi Calm Calm - N/A   Mostly Cloudy
3:10 PM 73.4 °F 62.6 °F 69% 30.01 in 10.0 mi Calm Calm - N/A   Mostly Cloudy
3:17 PM 71.6 °F 62.6 °F 73% 30.01 in 10.0 mi SW 3.5 mph - N/A   Mostly Cloudy
3:53 PM 71.1 °F 63.0 °F 75% 30.00 in 10.0 mi Calm Calm - 0.00 in Rain Light Rain
4:53 PM 73.0 °F 64.9 °F 76% 30.00 in 10.0 mi Calm Calm - 0.00 in   Clear
5:53 PM 75.0 °F 64.0 °F 69% 29.99 in 10.0 mi SSE 3.5 mph - N/A   Clear
6:53 PM 75.9 °F 66.0 °F 71% 29.99 in 10.0 mi Calm Calm - N/A   Clear
7:53 PM 71.1 °F 66.0 °F 84% 30.01 in 10.0 mi South 5.8 mph - N/A   Clear
8:53 PM 68.0 °F 64.0 °F 87% 30.02 in 10.0 mi South 3.5 mph - N/A   Clear
9:53 PM 66.0 °F 64.0 °F 93% 30.04 in 10.0 mi Calm Calm - N/A   Partly Cloudy
10:53 PM 64.9 °F 63.0 °F 93% 30.04 in 9.0 mi Calm Calm - N/A   Mostly Cloudy
11:53 PM 64.9 °F 63.0 °F 93% 30.05 in 8.0 mi SSE 3.5 mph - N/A   Scattered Clouds